ATLAS CENTAUR 2 DEB, 2886

Orbit data source: Space-Track

ATLAS CENTAUR 2 DEB, 2886 is space debris in LEO originally from a launch on Wed, 27 Nov 1963 UTC launched from the Air Force Eastern Test Range (AFETR). Debris objects in space refer to the collection of defunct objects orbiting the Earth. Examples of debris include non-operational satellites, rocket bodies, and fragments generated from explosions, collisions, or faulty payload assembly.

Loading next visibility...
Identifier
2886, 1963-047K
Orbit
LEO
Country
Flag of USUS
Related business
Manufacturer
Unknown
Mission
Spacecraft
Bus & Motor
Unknown
Mass
Unknown
Launch date (UTC)
1963-11-27 (63 years ago)
Launch vehicle
Unknown
Launch site
Air Force Eastern Test Range (AFETR)
Object type
Payload
Rocket body
Debris
Shape & HBR
Unknown shape, 0.2 m
Radar Cross Section
Medium (>0.1 m² and <1 m²)

Expand to show TLE details & history
Last TLE update: 1 day ago

TLE from 1 day ago
0 ATLAS CENTAUR 2 DEB
1 02886U 63047K   26237.02766222  .00000187  00000-0  90774-4 0  9998
2 02886  29.8693 211.0309 0643277  55.3741 310.5799 13.30004688885382
Epoch: 2026-08-25T00:39Z
TLE epoch observation values (Epoch: 2026-08-25T00:39:50.015Z)
Latitude
-0.00001°
Longitude
-132.22842°
Altitude
849.565 km
Speed
7.574 km/s
True Right ascension
14h 04m 07s
True Declination
0° 00' 00"
Sunlit
Object was in daylight at epoch
Visualization orbit readout
Latitude
Unknown
Longitude
Unknown
Altitude
Unknown
Speed
Unknown
Apparent Right ascension
Unknown
Apparent Declination
Unknown
Sunlit
N/A
Visualization observer readout
Local Sidereal Time
15:53:08
Azimuth
Unknown
Elevation
Unknown
Doppler factor
Unknown
Orbital elements
Apogee altitude
1,634.746 km
Perigee altitude
666.153 km
Semi-major axis
7,528.587 km
Eccentricity
0.06433
Inclination
29.8693°
RAAN
211.0309°
Arg. of periapsis
55.3741°
True anomaly
304.68353°
Mean anomaly
310.5799°
Eccentric anomaly
307.6622°
Mean motion
3.32256 °/min
Orbital period
108.35 mins
BSTAR
0.000090774
Loading maneuver chart data...
Computing Atmospheric mass density...

Documentation

Showing up to 5 results
|